When you browse on this site, cookies collect data to enhance your experience and personalize the content and advertising you see.
Visit our Privacy Policy to learn more. By continuing to use the site, you agree to this use of cookies and data.
  • Em Portugal
  • Lista de países
  • Para 7 dias
  • Temperatura da água
  • Mapa do tempo
  • Widgets de tempo
  • user-avatar
    Iniciar Sessão

    Previsão horária em Manises

    Hoje, 21 Agosto, Quarta-feira

    Tempo Temperatura Precipitação Vento Pressão Humidade
    00:00 +25°C° 0.1 mm 3 m/s 760 mmHg 77%
    01:00 +24°C° 0.1 mm 3 m/s 760 mmHg 79%
    02:00 +24°C° 0.1 mm 3 m/s 760 mmHg 82%
    03:00 +24°C° 0.1 mm 3 m/s 760 mmHg 84%
    04:00 +24°C° 0 mm 3 m/s 760 mmHg 82%
    05:00 +24°C° 0 mm 2 m/s 760 mmHg 81%
    06:00 +24°C° 0 mm 2 m/s 760 mmHg 79%
    07:00 +25°C° 0 mm 2 m/s 760 mmHg 74%
    08:00 +26°C° 0 mm 3 m/s 760 mmHg 68%
    09:00 +27°C° 0 mm 3 m/s 760 mmHg 63%
    10:00 +28°C° 0 mm 3 m/s 760 mmHg 58%
    11:00 +29°C° 0 mm 4 m/s 760 mmHg 52%
    12:00 +30°C° 0 mm 4 m/s 760 mmHg 47%
    13:00 +30°C° 0 mm 4 m/s 759 mmHg 46%
    14:00 +32°C° 0 mm 5 m/s 759 mmHg 45%
    15:00 +32°C° 0 mm 5 m/s 758 mmHg 44%
    16:00 +30°C° 0.2 mm 4 m/s 758 mmHg 48%
    17:00 +29°C° 0.2 mm 3 m/s 759 mmHg 52%
    18:00 +28°C° 0.2 mm 2 m/s 759 mmHg 56%
    19:00 +27°C° 0.2 mm 2 m/s 759 mmHg 61%
    20:00 +26°C° 0.2 mm 2 m/s 759 mmHg 66%
    21:00 +25°C° 0.2 mm 1 m/s 759 mmHg 71%
    22:00 +25°C° 0 mm 1 m/s 759 mmHg 70%
    23:00 +24°C° 0 mm 1 m/s 759 mmHg 70%

    Amanhã, 22 Agosto, Quinta-feira

    Tempo Temperatura Precipitação Vento Pressão Humidade
    00:00 +22°C° 0 mm 0 m/s 759 mmHg 70%
    01:00 +22°C° 0 mm 0 m/s 759 mmHg 69%
    02:00 +21°C° 0 mm 0 m/s 759 mmHg 69%
    03:00 +21°C° 0 mm 0 m/s 759 mmHg 69%
    04:00 +23°C° 0 mm 1 m/s 759 mmHg 68%
    05:00 +23°C° 0 mm 1 m/s 759 mmHg 66%
    06:00 +24°C° 0 mm 1 m/s 759 mmHg 65%
    07:00 +26°C° 0 mm 1 m/s 760 mmHg 57%
    08:00 +28°C° 0 mm 1 m/s 760 mmHg 50%
    09:00 +30°C° 0 mm 1 m/s 760 mmHg 43%
    10:00 +31°C° 0 mm 2 m/s 760 mmHg 39%
    11:00 +33°C° 0 mm 3 m/s 760 mmHg 36%
    12:00 +35°C° 0 mm 4 m/s 759 mmHg 32%
    13:00 +35°C° 0 mm 4 m/s 759 mmHg 32%
    14:00 +34°C° 0 mm 5 m/s 759 mmHg 31%
    15:00 +34°C° 0 mm 5 m/s 758 mmHg 30%
    16:00 +33°C° 0 mm 5 m/s 758 mmHg 34%
    17:00 +32°C° 0 mm 4 m/s 758 mmHg 38%
    18:00 +30°C° 0 mm 3 m/s 758 mmHg 42%
    19:00 +28°C° 0 mm 2 m/s 759 mmHg 49%
    20:00 +26°C° 0 mm 2 m/s 759 mmHg 57%
    21:00 +25°C° 0 mm 1 m/s 760 mmHg 65%
    22:00 +25°C° 0 mm 1 m/s 760 mmHg 65%
    23:00 +24°C° 0 mm 1 m/s 760 mmHg 65%

    Depois de amanhã, 23 Agosto, Sexta-feira

    Tempo Temperatura Precipitação Vento Pressão Humidade
    00:00 +24°C° 0 mm 1 m/s 760 mmHg 65%
    01:00 +24°C° 0 mm 1 m/s 760 mmHg 64%
    02:00 +24°C° 0 mm 1 m/s 759 mmHg 62%
    03:00 +24°C° 0 mm 1 m/s 759 mmHg 61%
    04:00 +24°C° 0 mm 1 m/s 759 mmHg 59%
    05:00 +24°C° 0 mm 1 m/s 759 mmHg 57%
    06:00 +24°C° 0 mm 1 m/s 759 mmHg 55%
    07:00 +26°C° 0 mm 1 m/s 759 mmHg 48%
    08:00 +29°C° 0 mm 1 m/s 759 mmHg 40%
    09:00 +31°C° 0 mm 1 m/s 759 mmHg 32%
    10:00 +32°C° 0 mm 2 m/s 759 mmHg 29%
    11:00 +35°C° 0 mm 3 m/s 759 mmHg 26%
    12:00 +36°C° 0 mm 4 m/s 759 mmHg 23%
    13:00 +36°C° 0 mm 4 m/s 758 mmHg 23%
    14:00 +36°C° 0 mm 5 m/s 758 mmHg 23%
    15:00 +36°C° 0 mm 5 m/s 757 mmHg 24%
    16:00 +34°C° 0 mm 4 m/s 757 mmHg 28%
    17:00 +33°C° 0 mm 4 m/s 757 mmHg 32%
    18:00 +31°C° 0 mm 3 m/s 757 mmHg 36%
    19:00 +29°C° 0 mm 2 m/s 758 mmHg 43%
    20:00 +27°C° 0 mm 1 m/s 758 mmHg 51%
    21:00 +23°C° 0 mm 0 m/s 759 mmHg 58%
    22:00 +23°C° 0 mm 0 m/s 758 mmHg 57%
    23:00 +25°C° 0 mm 1 m/s 758 mmHg 55%

    24 Agosto, Sábado

    Tempo Temperatura Precipitação Vento Pressão Humidade
    00:00 +25°C° 0 mm 1 m/s 758 mmHg 54%
    01:00 +25°C° 0 mm 1 m/s 758 mmHg 52%
    02:00 +24°C° 0 mm 1 m/s 758 mmHg 51%
    03:00 +24°C° 0 mm 1 m/s 758 mmHg 49%
    04:00 +24°C° 0 mm 1 m/s 758 mmHg 48%
    05:00 +24°C° 0 mm 1 m/s 758 mmHg 47%
    06:00 +24°C° 0 mm 1 m/s 758 mmHg 46%
    07:00 +27°C° 0 mm 1 m/s 758 mmHg 39%
    08:00 +29°C° 0 mm 1 m/s 758 mmHg 33%
    09:00 +32°C° 0 mm 1 m/s 759 mmHg 26%
    10:00 +34°C° 0 mm 2 m/s 758 mmHg 25%
    11:00 +35°C° 0 mm 3 m/s 758 mmHg 23%
    12:00 +37°C° 0 mm 4 m/s 758 mmHg 21%
    13:00 +36°C° 0 mm 4 m/s 758 mmHg 24%
    14:00 +36°C° 0 mm 5 m/s 757 mmHg 26%
    15:00 +36°C° 0 mm 5 m/s 757 mmHg 29%
    16:00 +34°C° 0 mm 4 m/s 757 mmHg 35%
    17:00 +33°C° 0 mm 4 m/s 757 mmHg 42%
    18:00 +30°C° 0 mm 3 m/s 757 mmHg 48%
    19:00 +28°C° 0 mm 2 m/s 757 mmHg 57%
    20:00 +27°C° 0 mm 1 m/s 757 mmHg 66%
    21:00 +23°C° 0 mm 0 m/s 758 mmHg 75%
    22:00 +23°C° 0 mm 0 m/s 758 mmHg 75%
    23:00 +22°C° 0 mm 0 m/s 758 mmHg 75%

    25 Agosto, Domingo

    Tempo Temperatura Precipitação Vento Pressão Humidade
    00:00 +22°C° 0 mm 0 m/s 758 mmHg 75%
    01:00 +24°C° 0 mm 1 m/s 758 mmHg 75%
    02:00 +24°C° 0 mm 1 m/s 757 mmHg 75%
    03:00 +23°C° 0 mm 1 m/s 757 mmHg 75%
    04:00 +23°C° 0 mm 1 m/s 757 mmHg 73%
    05:00 +24°C° 0 mm 1 m/s 757 mmHg 70%
    06:00 +24°C° 0 mm 1 m/s 758 mmHg 67%
    07:00 +26°C° 0 mm 1 m/s 758 mmHg 57%
    08:00 +29°C° 0 mm 1 m/s 758 mmHg 46%
    09:00 +31°C° 0 mm 1 m/s 758 mmHg 36%
    10:00 +34°C° 0 mm 2 m/s 758 mmHg 33%
    11:00 +35°C° 0 mm 3 m/s 758 mmHg 30%
    12:00 +36°C° 0 mm 4 m/s 757 mmHg 28%
    13:00 +36°C° 0 mm 5 m/s 757 mmHg 29%
    14:00 +36°C° 0 mm 5 m/s 757 mmHg 30%
    15:00 +36°C° 0 mm 5 m/s 757 mmHg 31%
    16:00 +34°C° 0 mm 5 m/s 756 mmHg 36%
    17:00 +33°C° 0 mm 4 m/s 756 mmHg 41%
    18:00 +30°C° 0 mm 3 m/s 756 mmHg 46%
    19:00 +28°C° 0 mm 3 m/s 757 mmHg 53%
    20:00 +27°C° 0 mm 2 m/s 758 mmHg 61%
    21:00 +25°C° 0 mm 1 m/s 758 mmHg 69%
    22:00 +25°C° 0 mm 1 m/s 758 mmHg 67%
    23:00 +25°C° 0 mm 1 m/s 758 mmHg 65%

    26 Agosto, Segunda-feira

    Tempo Temperatura Precipitação Vento Pressão Humidade
    00:00 +25°C° 0 mm 1 m/s 759 mmHg 64%
    01:00 +25°C° 0 mm 1 m/s 758 mmHg 62%
    02:00 +25°C° 0 mm 1 m/s 758 mmHg 60%
    03:00 +24°C° 0 mm 1 m/s 758 mmHg 58%
    04:00 +25°C° 0 mm 1 m/s 758 mmHg 56%
    05:00 +25°C° 0 mm 1 m/s 759 mmHg 54%
    06:00 +25°C° 0 mm 1 m/s 759 mmHg 52%
    07:00 +27°C° 0 mm 1 m/s 759 mmHg 46%
    08:00 +30°C° 0 mm 1 m/s 759 mmHg 39%
    09:00 +32°C° 0 mm 1 m/s 759 mmHg 32%
    10:00 +35°C° 0 mm 2 m/s 759 mmHg 29%
    11:00 +36°C° 0 mm 3 m/s 759 mmHg 26%
    12:00 +38°C° 0 mm 4 m/s 759 mmHg 23%
    13:00 +37°C° 0 mm 4 m/s 758 mmHg 26%
    14:00 +37°C° 0 mm 5 m/s 758 mmHg 28%
    15:00 +36°C° 0 mm 5 m/s 758 mmHg 31%
    16:00 +35°C° 0 mm 4 m/s 758 mmHg 36%
    17:00 +33°C° 0 mm 4 m/s 758 mmHg 41%
    18:00 +31°C° 0 mm 3 m/s 758 mmHg 47%
    19:00 +29°C° 0 mm 2 m/s 759 mmHg 52%
    20:00 +28°C° 0 mm 2 m/s 759 mmHg 57%
    21:00 +27°C° 0 mm 1 m/s 760 mmHg 63%
    22:00 +27°C° 0 mm 1 m/s 760 mmHg 61%
    23:00 +26°C° 0 mm 1 m/s 760 mmHg 60%
    Mostrar mais